Simultaneous Nadir Overpasses (SNOs) Predictions

Prediction of SNOs between METOP-B and TERRA Satellite Orbit:

Table of predicted SNOs for the next 14.0 days since TLE Epoch: 6/25/2022
Index Date (METOP-B) Time (METOP-B) Lat,Lon (METOP-B) SZA (METOP-B ) Date (TERRA) Time (TERRA) Lat,Lon (TERRA) SZA (TERRA ) Distance(km) Time Diff (sec)
1 06/25/2022 10:41:46 81.16, 60.12 59.94 06/25/2022 10:42:43 81.17, 60.17 59.98 1.09 57
2 06/25/2022 11:32:26 -81.17,-132.12 120.01 06/25/2022 11:32:09 -81.18,-131.94 119.99 3.24 17
3 06/28/2022 06:16:09 81.16, 126.33 60.01 06/28/2022 06:16:53 81.15, 126.40 60.03 1.27 44
4 06/28/2022 07:06:48 -81.18, -65.50 119.89 06/28/2022 07:06:19 -81.17, -65.68 119.93 3.28 29
5 07/01/2022 01:50:30 81.16,-167.11 60.17 07/01/2022 01:51:01 81.16,-167.09 60.18 0.42 31
6 07/01/2022 02:41:10 -81.18, 0.71 119.77 07/01/2022 02:40:27 -81.18, 0.85 119.77 2.41 43
7 07/03/2022 21:24:52 81.16,-100.59 60.38 07/03/2022 21:25:10 81.16,-100.68 60.38 1.70 18
8 07/03/2022 22:15:32 -81.18, 67.26 119.55 07/03/2022 22:14:36 -81.18, 67.29 119.58 0.47 56
9 07/06/2022 16:59:14 81.17, -34.10 60.64 07/06/2022 16:59:18 81.17, -33.99 60.66 1.94 4



Historial Predications of SNOs between METOP-B and TERRA
